Omaha Offutt, NE

10:57 AM CDT on August 19, 2017 (GMT -0500)
Offutt Air Force Base

Weather History for KOFF - March, 2013

Change the Weather History Date:

Monday, March 11, 2013

  Actual Average Record
Temperature  
Mean Temperature 24 °F -  
Max Temperature 31 °F 42 °F 72 °F (2016)
Min Temperature 19 °F 24 °F -2 °F (1998)
Degree Days  
Heating Degree Days 40    
Moisture  
Dew Point 19 °F    
Average Humidity 81    
Maximum Humidity 93    
Minimum Humidity 58    
Precipitation  
Precipitation 0.00 in - - ()
Snow  
Snow 0.00 in - - ()
Snow Depth 4.00 in    
Sea Level Pressure  
Sea Level Pressure 29.95 in    
Wind  
Wind Speed 15 mph (WNW)    
Max Wind Speed 20 mph    
Max Gust Speed 25 mph    
Visibility 5 miles    
Events Snow    
Averages and records for this station are not official NWS values.
T = Trace of Precipitation, MM = Missing Value Source: NWS Daily Summary

Daily Weather History Graph

Daily Weather History Graph

Search for Another Location

Airport or City:

Trip Planner

Search our weather history database for the weather conditions in past years. The results will help you decide how hot, cold, wet, or windy it might be!

Date:

Astronomy

Mar. 11, 2013 Rise Set
Actual Time 7:41 AM CDT 7:26 PM CDT
Civil Twilight 7:14 AM CDT 7:53 PM CDT
Nautical Twilight 6:42 AM CDT 8:25 PM CDT
Astronomical Twilight 6:09 AM CDT 8:57 PM CDT
Moon 7:15 AM CDT (3/11) 7:40 PM CDT (3/11)
Length of Visible Light 12h 39m
Length of Day
11h 44m
Waning Crescent, 0% of the Moon is Illuminated
Mar 11
Waning Crescent
Mar 11
New
Mar 19
First Quarter
Mar 27
Full
Apr 2
Last Quarter

Hourly Weather History & Observations

Time (CDT) Temp. Windchill Dew Point Humidity Pressure Visibility Wind Dir Wind Speed Gust Speed Precip Events Conditions
12:56 AM 23.7 °F 10.5 °F 20.7 °F 88% 29.95 in 0.8 mi WNW 16.1 mph - 0.00 in Snow Light Snow
1:20 AM 23.0 °F 9.2 °F 21.2 °F 93% 29.95 in 0.8 mi NW 17.3 mph - N/A Snow Light Snow
1:45 AM 23.0 °F 9.6 °F 21.2 °F 93% 29.95 in 1.0 mi NW 16.1 mph 24.2 mph N/A Snow Light Snow
1:46 AM 23.0 °F 8.7 °F 21.2 °F 93% 29.95 in 1.0 mi NW 18.4 mph - N/A Snow Light Snow
1:55 AM 23.5 °F 9.4 °F 20.3 °F 87% 29.95 in 1.0 mi WNW 18.4 mph 24.2 mph 0.00 in Snow Light Snow
2:55 AM 23.7 °F 9.3 °F 20.3 °F 87% 29.94 in 1.0 mi WNW 19.6 mph - 0.00 in Snow Light Snow
3:03 AM 23.0 °F 9.6 °F 21.2 °F 93% 29.93 in 0.8 mi NW 16.1 mph - N/A Snow Light Snow
3:09 AM 23.0 °F 8.7 °F 21.2 °F 93% 29.93 in 1.0 mi WNW 18.4 mph - N/A Snow Light Snow
3:36 AM 23.0 °F 10.6 °F 19.4 °F 86% 29.93 in 1.0 mi WNW 13.8 mph - N/A Snow Light Snow
3:45 AM 23.0 °F 11.1 °F 19.4 °F 86% 29.93 in 0.8 mi NW 12.7 mph - N/A Snow Light Snow
3:51 AM 23.0 °F 10.6 °F 21.2 °F 93% 29.93 in 1.0 mi WNW 13.8 mph - N/A Snow Light Snow
3:55 AM 23.2 °F 11.4 °F 20.5 °F 89% 29.93 in 1.0 mi NW 12.7 mph - 0.00 in Snow Light Snow
4:15 AM 23.0 °F 10.1 °F 19.4 °F 86% 29.92 in 1.0 mi NW 15.0 mph - N/A Snow Light Snow
4:25 AM 23.0 °F 9.6 °F 19.4 °F 86% 29.91 in 1.0 mi NW 16.1 mph - N/A Snow Light Snow
4:38 AM 23.0 °F 9.2 °F 19.4 °F 86% 29.92 in 1.0 mi WNW 17.3 mph - N/A Snow Blowing Snow
4:39 AM 23.0 °F 9.6 °F 19.4 °F 86% 29.92 in 1.0 mi WNW 16.1 mph - N/A   Haze
4:45 AM 23.0 °F 8.7 °F 19.4 °F 86% 29.92 in 1.0 mi WNW 18.4 mph - N/A   Overcast
4:47 AM 23.0 °F 9.2 °F 19.4 °F 86% 29.92 in 1.0 mi WNW 17.3 mph - N/A   Overcast
4:53 AM 23.0 °F 8.7 °F 19.4 °F 86% 29.92 in 1.0 mi WNW 18.4 mph - N/A   Light Freezing Rain
4:55 AM 22.8 °F 8.9 °F 19.2 °F 86% 29.92 in 1.0 mi WNW 17.3 mph - 0.00 in   Light Freezing Rain
5:05 AM 23.0 °F 9.6 °F 19.4 °F 86% 29.92 in 1.2 mi WNW 16.1 mph 25.3 mph N/A   Light Freezing Rain
5:20 AM 23.0 °F 9.2 °F 19.4 °F 86% 29.92 in 1.2 mi WNW 17.3 mph - N/A   Haze
5:28 AM 23.0 °F 10.6 °F 19.4 °F 86% 29.92 in 1.2 mi NW 13.8 mph 21.9 mph N/A   Haze
5:55 AM 23.2 °F 9.4 °F 18.9 °F 84% 29.92 in 1.2 mi NW 17.3 mph 23.0 mph 0.00 in   Haze
6:55 AM 23.0 °F 9.6 °F 18.7 °F 84% 29.92 in 10.0 mi NW 16.1 mph - N/A   Overcast
7:55 AM 22.6 °F 10.7 °F 17.6 °F 81% 29.94 in 10.0 mi NW 12.7 mph - N/A   Overcast
8:55 AM 22.6 °F 10.7 °F 17.6 °F 81% 29.96 in 10.0 mi NW 12.7 mph - N/A   Overcast
9:17 AM 23.0 °F 10.6 °F 17.6 °F 80% 29.96 in 10.0 mi NW 13.8 mph - N/A   Overcast
9:55 AM 22.8 °F 9.9 °F 17.6 °F 80% 29.97 in 10.0 mi NW 15.0 mph - 0.00 in   Overcast
10:10 AM 23.0 °F 10.6 °F 17.6 °F 80% 29.97 in 10.0 mi NW 13.8 mph - N/A   Overcast
10:55 AM 23.2 °F 9.4 °F 17.2 °F 78% 29.97 in 10.0 mi WNW 17.3 mph - 0.00 in   Overcast
11:43 AM 24.8 °F 13.4 °F 17.6 °F 74% 29.96 in 10.0 mi NW 12.7 mph - N/A   Scattered Clouds
11:55 AM 25.2 °F 15.7 °F 15.8 °F 68% 29.96 in 10.0 mi NW 9.2 mph - N/A   Scattered Clouds
12:55 PM 26.8 °F 14.9 °F 18.1 °F 70% 29.96 in 10.0 mi WNW 15.0 mph - N/A   Partly Cloudy
1:55 PM 26.4 °F 16.0 °F 17.4 °F 69% 29.94 in 10.0 mi NW 11.5 mph - N/A   Scattered Clouds
2:55 PM 28.4 °F 19.7 °F 18.5 °F 66% 29.93 in 10.0 mi West 9.2 mph - N/A   Clear
3:55 PM 29.8 °F 20.9 °F 18.9 °F 64% 29.93 in 10.0 mi West 10.4 mph - N/A   Clear
4:55 PM 30.7 °F 22.0 °F 19.2 °F 62% 29.94 in 10.0 mi WNW 10.4 mph - N/A   Clear
5:55 PM 30.4 °F 23.6 °F 17.1 °F 58% 29.94 in 10.0 mi West 6.9 mph - N/A   Clear
6:55 PM 30.0 °F 24.1 °F 16.9 °F 58% 29.95 in 10.0 mi SW 5.8 mph - N/A   Clear
7:55 PM 28.6 °F - 16.3 °F 60% 29.97 in 10.0 mi Calm Calm - N/A   Clear
8:55 PM 27.0 °F 21.6 °F 16.7 °F 65% 30.00 in 10.0 mi West 4.6 mph - N/A   Clear
9:55 PM 19.8 °F - 14.4 °F 80% 30.01 in 10.0 mi Calm Calm - N/A   Clear
10:55 PM 19.4 °F - 17.1 °F 91% 30.03 in 10.0 mi Calm Calm - N/A   Clear
11:55 PM 22.5 °F 15.1 °F 16.0 °F 76% 30.05 in 10.0 mi West 5.8 mph - N/A   Clear